sat.trackr.live / text

‹ back to catalog

STARLINK-35663

NORAD 66491 · 2025-263G

PAYLOAD ACTIVE UNKNOWN

§ Identity

Operator
Country
US
Launch date
2025-11-15
Launch site
AFETR
Launch vehicle
Mass (kg)
RCS (m²)

Purposes: comms

External: N2YO · Heavens-Above · Gunter

§ Orbital elements

Epoch: 2026-09-20T06:04:51.913632Z

Period
94.27 min
Inclination
43.0045°
Eccentricity
0.0001639
Mean motion
15.27585127 rev/d
Perigee alt
481.9 km
Apogee alt
484.2 km
Semi-major
6,861.2 km
B*
3.6386e-4
RAAN
332.0105°
Arg perigee
279.1899°
Mean anomaly
80.8767°
Rev number
4,865

§ Raw data

STARLINK-356631 66491U 25263G   26263.25337863  .00009765  00000+0  36386-3 0  99952 66491  43.0045 332.0105 0001639 279.1899  80.8767 15.27585127 48654

JSON: /api/v1/satellites/66491 · /tle

For live sub-satellite position, see the globe view (requires WebGL).

§ Visibility from observer

Set your observer location to see the next 7 days of passes ≥ 10°. The values pass through the URL so the page stays shareable.

No JS? Fill the form by hand. The geolocation button needs JavaScript.